P/2023 B1 ( PanSTARRS )

Japanese version
Home page
Updated on March 26, 2023

---------------------------------------------------------------------

* Profile

Discovery Date January 21, 2023
Magnitude 17.7 mag
Discoverer Pan-STARRS 2 telescope (Haleakala)

* Pictures

* Orbital Elements

Epoch 2023 Feb. 25.0 TT = JDT 2460000.5
T 2023 Apr. 26.41499 TT                                 Rudenko
q   6.1410147            (2000.0)            P               Q
n   0.05265170     Peri.   81.19536     -0.90716179     -0.34073433
a   7.0500866      Node    78.58794     +0.21226223     -0.87718975
e   0.1289448      Incl.   14.58853     +0.36332112     -0.33828726
P  18.7
>From 317 observations 2023 Jan. 13-Mar. 19, mean residual 0".4.

* Magnitudes Graph

        m1 = 5.0 + 5 log d + 10.0 log r

---------------------------------------------------------------------

The orbital elements are published on M.P.E.C. 2023-F81.
The magnitudes graphs are made with Comet for Windows.

---------------------------------------------------------------------

Copyright(C) Seiichi Yoshida (comet@aerith.net). All rights reserved.